Year,Month,Day,Hour,Minute,Value (Times are PST for temperature in C)
2010,10,17,00,00,3.60
2010,10,17,00,01,3.60
2010,10,17,00,02,3.60
2010,10,17,00,03,3.60
2010,10,17,00,04,3.60
2010,10,17,00,05,3.60
2010,10,17,00,06,3.60
2010,10,17,00,07,3.60
2010,10,17,00,08,3.60
2010,10,17,00,09,3.50
2010,10,17,00,10,3.50
2010,10,17,00,11,3.60
2010,10,17,00,12,3.60
2010,10,17,00,13,3.60
2010,10,17,00,14,3.60
2010,10,17,00,15,3.60
2010,10,17,00,16,3.60
2010,10,17,00,17,3.60
2010,10,17,00,18,3.50
2010,10,17,00,19,3.50
2010,10,17,00,20,3.50
2010,10,17,00,21,3.50
2010,10,17,00,22,3.50
2010,10,17,00,23,3.40
2010,10,17,00,24,3.40
2010,10,17,00,25,3.40
2010,10,17,00,26,3.30
2010,10,17,00,27,3.30
2010,10,17,00,28,3.30
2010,10,17,00,29,3.20
2010,10,17,00,30,3.20
2010,10,17,00,31,3.20
2010,10,17,00,32,3.20
2010,10,17,00,33,3.10
2010,10,17,00,34,3.10
2010,10,17,00,35,3.00
2010,10,17,00,36,3.00
2010,10,17,00,37,2.90
2010,10,17,00,38,2.90
2010,10,17,00,39,2.90
2010,10,17,00,40,2.90
2010,10,17,00,41,2.80
2010,10,17,00,42,2.80
2010,10,17,00,43,2.80
2010,10,17,00,44,2.80
2010,10,17,00,45,2.80
2010,10,17,00,46,2.90
2010,10,17,00,47,2.90
2010,10,17,00,48,2.90
2010,10,17,00,49,2.80
2010,10,17,00,50,2.80
2010,10,17,00,51,2.80
2010,10,17,00,52,2.80
2010,10,17,00,53,2.80
2010,10,17,00,54,2.80
2010,10,17,00,55,2.80
2010,10,17,00,56,2.70
2010,10,17,00,57,2.70
2010,10,17,00,58,2.70
2010,10,17,00,59,2.70
2010,10,17,01,00,2.70
2010,10,17,01,01,2.70
2010,10,17,01,02,2.60
2010,10,17,01,03,2.60
2010,10,17,01,04,2.60
2010,10,17,01,05,2.60
2010,10,17,01,06,2.60
2010,10,17,01,07,2.60
2010,10,17,01,08,2.60
2010,10,17,01,09,2.50
2010,10,17,01,10,2.50
2010,10,17,01,11,2.40
2010,10,17,01,12,2.40
2010,10,17,01,13,2.30
2010,10,17,01,14,2.30
2010,10,17,01,15,2.20
2010,10,17,01,16,2.20
2010,10,17,01,17,2.10
2010,10,17,01,18,2.10
2010,10,17,01,19,2.10
2010,10,17,01,20,2.00
2010,10,17,01,21,2.00
2010,10,17,01,22,2.00
2010,10,17,01,23,2.00
2010,10,17,01,24,2.00
2010,10,17,01,25,2.00
2010,10,17,01,26,2.00
2010,10,17,01,27,2.00
2010,10,17,01,28,2.10
2010,10,17,01,29,2.10
2010,10,17,01,30,2.10
2010,10,17,01,31,2.10
2010,10,17,01,32,2.10
2010,10,17,01,33,2.10
2010,10,17,01,34,2.00
2010,10,17,01,35,2.00
2010,10,17,01,36,2.00
2010,10,17,01,37,2.00
2010,10,17,01,38,2.00
2010,10,17,01,39,2.00
2010,10,17,01,40,2.00
2010,10,17,01,41,2.00
2010,10,17,01,42,2.00
2010,10,17,01,43,2.00
2010,10,17,01,44,2.00
2010,10,17,01,45,2.00
2010,10,17,01,46,2.00
2010,10,17,01,47,2.00
2010,10,17,01,48,2.00
2010,10,17,01,49,2.00
2010,10,17,01,50,2.00
2010,10,17,01,51,2.00
2010,10,17,01,52,2.00
2010,10,17,01,53,2.00
2010,10,17,01,54,2.00
2010,10,17,01,55,2.00
2010,10,17,01,56,2.00
2010,10,17,01,57,2.00
2010,10,17,01,58,1.90
2010,10,17,01,59,1.90
2010,10,17,02,00,1.90
2010,10,17,02,01,1.90
2010,10,17,02,02,1.90
2010,10,17,02,03,1.90
2010,10,17,02,04,1.90
2010,10,17,02,05,1.90
2010,10,17,02,06,1.90
2010,10,17,02,07,1.90
2010,10,17,02,08,1.90
2010,10,17,02,09,1.90
2010,10,17,02,10,1.90
2010,10,17,02,11,1.80
2010,10,17,02,12,1.90
2010,10,17,02,13,1.80
2010,10,17,02,14,1.80
2010,10,17,02,15,1.80
2010,10,17,02,16,1.80
2010,10,17,02,17,1.80
2010,10,17,02,18,1.80
2010,10,17,02,19,1.80
2010,10,17,02,20,1.80
2010,10,17,02,21,1.80
2010,10,17,02,22,1.70
2010,10,17,02,23,1.70
2010,10,17,02,24,1.70
2010,10,17,02,25,1.70
2010,10,17,02,26,1.70
2010,10,17,02,27,1.70
2010,10,17,02,28,1.70
2010,10,17,02,29,1.70
2010,10,17,02,30,1.70
2010,10,17,02,31,1.70
2010,10,17,02,32,1.60
2010,10,17,02,33,1.60
2010,10,17,02,34,1.60
2010,10,17,02,35,1.60
2010,10,17,02,36,1.60
2010,10,17,02,37,1.60
2010,10,17,02,38,1.60
2010,10,17,02,39,1.60
2010,10,17,02,40,1.60
2010,10,17,02,41,1.60
2010,10,17,02,42,1.60
2010,10,17,02,43,1.60
2010,10,17,02,44,1.60
2010,10,17,02,45,1.60
2010,10,17,02,46,1.60
2010,10,17,02,47,1.60
2010,10,17,02,48,1.60
2010,10,17,02,49,1.60
2010,10,17,02,50,1.60
2010,10,17,02,51,1.60
2010,10,17,02,52,1.60
2010,10,17,02,53,1.50
2010,10,17,02,54,1.50
2010,10,17,02,55,1.50
2010,10,17,02,56,1.50
2010,10,17,02,57,1.50
2010,10,17,02,58,1.40
2010,10,17,02,59,1.40
2010,10,17,03,00,1.40
2010,10,17,03,01,1.40
2010,10,17,03,02,1.40
2010,10,17,03,03,1.30
2010,10,17,03,04,1.30
2010,10,17,03,05,1.30
2010,10,17,03,06,1.30
2010,10,17,03,07,1.30
2010,10,17,03,08,1.30
2010,10,17,03,09,1.30
2010,10,17,03,10,1.30
2010,10,17,03,11,1.30
2010,10,17,03,12,1.30
2010,10,17,03,13,1.30
2010,10,17,03,14,1.30
2010,10,17,03,15,1.30
2010,10,17,03,16,1.30
2010,10,17,03,17,1.20
2010,10,17,03,18,1.20
2010,10,17,03,19,1.20
2010,10,17,03,20,1.20
2010,10,17,03,21,1.20
2010,10,17,03,22,1.20
2010,10,17,03,23,1.20
2010,10,17,03,24,1.20
2010,10,17,03,25,1.20
2010,10,17,03,26,1.20
2010,10,17,03,27,1.20
2010,10,17,03,28,1.10
2010,10,17,03,29,1.10
2010,10,17,03,30,1.10
2010,10,17,03,31,1.10
2010,10,17,03,32,1.10
2010,10,17,03,33,1.10
2010,10,17,03,34,1.10
2010,10,17,03,35,1.10
2010,10,17,03,36,1.10
2010,10,17,03,37,1.10
2010,10,17,03,38,1.10
2010,10,17,03,39,1.00
2010,10,17,03,40,1.00
2010,10,17,03,41,1.00
2010,10,17,03,42,1.00
2010,10,17,03,43,1.00
2010,10,17,03,44,1.00
2010,10,17,03,45,1.00
2010,10,17,03,46,1.00
2010,10,17,03,47,1.00
2010,10,17,03,48,1.00
2010,10,17,03,49,0.90
2010,10,17,03,50,0.90
2010,10,17,03,51,0.90
2010,10,17,03,52,0.90
2010,10,17,03,53,0.90
2010,10,17,03,54,0.90
2010,10,17,03,55,0.90
2010,10,17,03,56,0.90
2010,10,17,03,57,0.90
2010,10,17,03,58,0.90
2010,10,17,03,59,0.90
2010,10,17,04,00,0.90
2010,10,17,04,01,0.90
2010,10,17,04,02,0.90
2010,10,17,04,03,0.80
2010,10,17,04,04,0.80
2010,10,17,04,05,0.80
2010,10,17,04,06,0.80
2010,10,17,04,07,0.80
2010,10,17,04,08,0.80
2010,10,17,04,09,0.80
2010,10,17,04,10,0.80
2010,10,17,04,11,0.90
2010,10,17,04,12,0.90
2010,10,17,04,13,0.90
2010,10,17,04,14,0.90
2010,10,17,04,15,0.90
2010,10,17,04,16,0.90
2010,10,17,04,17,0.90
2010,10,17,04,18,0.90
2010,10,17,04,19,0.90
2010,10,17,04,20,1.00
2010,10,17,04,21,1.00
2010,10,17,04,22,1.00
2010,10,17,04,23,1.00
2010,10,17,04,24,1.10
2010,10,17,04,25,1.10
2010,10,17,04,26,1.10
2010,10,17,04,27,1.10
2010,10,17,04,28,1.10
2010,10,17,04,29,1.10
2010,10,17,04,30,1.10
2010,10,17,04,31,1.10
2010,10,17,04,32,1.10
2010,10,17,04,33,1.10
2010,10,17,04,34,1.10
2010,10,17,04,35,1.10
2010,10,17,04,36,1.10
2010,10,17,04,37,1.10
2010,10,17,04,38,1.10
2010,10,17,04,39,1.10
2010,10,17,04,40,1.10
2010,10,17,04,41,1.10
2010,10,17,04,42,1.10
2010,10,17,04,43,1.10
2010,10,17,04,44,1.10
2010,10,17,04,45,1.00
2010,10,17,04,46,1.00
2010,10,17,04,47,1.00
2010,10,17,04,48,1.00
2010,10,17,04,49,1.00
2010,10,17,04,50,1.00
2010,10,17,04,51,1.00
2010,10,17,04,52,1.00
2010,10,17,04,53,1.00
2010,10,17,04,54,1.00
2010,10,17,04,55,0.90
2010,10,17,04,56,0.90
2010,10,17,04,57,0.90
2010,10,17,04,58,0.90
2010,10,17,04,59,0.90
2010,10,17,05,00,0.90
2010,10,17,05,01,0.90
2010,10,17,05,02,0.80
2010,10,17,05,03,0.80
2010,10,17,05,04,0.80
2010,10,17,05,05,0.80
2010,10,17,05,06,0.80
2010,10,17,05,07,0.80
2010,10,17,05,08,0.80
2010,10,17,05,09,0.70
2010,10,17,05,10,0.70
2010,10,17,05,11,0.70
2010,10,17,05,12,0.70
2010,10,17,05,13,0.70
2010,10,17,05,14,0.70
2010,10,17,05,15,0.70
2010,10,17,05,16,0.70
2010,10,17,05,17,0.70
2010,10,17,05,18,0.70
2010,10,17,05,19,0.60
2010,10,17,05,20,0.60
2010,10,17,05,21,0.60
2010,10,17,05,22,0.60
2010,10,17,05,23,0.50
2010,10,17,05,24,0.50
2010,10,17,05,25,0.50
2010,10,17,05,26,0.40
2010,10,17,05,27,0.40
2010,10,17,05,28,0.40
2010,10,17,05,29,0.40
2010,10,17,05,30,0.40
2010,10,17,05,31,0.40
2010,10,17,05,32,0.40
2010,10,17,05,33,0.40
2010,10,17,05,34,0.30
2010,10,17,05,35,0.30
2010,10,17,05,36,0.30
2010,10,17,05,37,0.30
2010,10,17,05,38,0.30
2010,10,17,05,39,0.30
2010,10,17,05,40,0.30
2010,10,17,05,41,0.30
2010,10,17,05,42,0.30
2010,10,17,05,43,0.40
2010,10,17,05,44,0.40
2010,10,17,05,45,0.40
2010,10,17,05,46,0.40
2010,10,17,05,47,0.30
2010,10,17,05,48,0.30
2010,10,17,05,49,0.30
2010,10,17,05,50,0.30
2010,10,17,05,51,0.30
2010,10,17,05,52,0.30
2010,10,17,05,53,0.30
2010,10,17,05,54,0.30
2010,10,17,05,55,0.30
2010,10,17,05,56,0.30
2010,10,17,05,57,0.30
2010,10,17,05,58,0.30
2010,10,17,05,59,0.20
2010,10,17,06,00,0.20
2010,10,17,06,01,0.20
2010,10,17,06,02,0.20
2010,10,17,06,03,0.20
2010,10,17,06,04,0.20
2010,10,17,06,05,0.20
2010,10,17,06,06,0.20
2010,10,17,06,07,0.20
2010,10,17,06,08,0.20
2010,10,17,06,09,0.10
2010,10,17,06,10,0.10
2010,10,17,06,11,0.10
2010,10,17,06,12,0.10
2010,10,17,06,13,0.10
2010,10,17,06,14,0.10
2010,10,17,06,15,0.10
2010,10,17,06,16,0.10
2010,10,17,06,17,0.10
2010,10,17,06,18,0.10
2010,10,17,06,19,0.10
2010,10,17,06,20,0.10
2010,10,17,06,21,0.10
2010,10,17,06,22,0.10
2010,10,17,06,23,0.20
2010,10,17,06,24,0.20
2010,10,17,06,25,0.20
2010,10,17,06,26,0.20
2010,10,17,06,27,0.20
2010,10,17,06,28,0.20
2010,10,17,06,29,0.20
2010,10,17,06,30,0.20
2010,10,17,06,31,0.20
2010,10,17,06,32,0.20
2010,10,17,06,33,0.20
2010,10,17,06,34,0.20
2010,10,17,06,35,0.20
2010,10,17,06,36,0.10
2010,10,17,06,37,0.10
2010,10,17,06,38,0.10
2010,10,17,06,39,0.10
2010,10,17,06,40,0.10
2010,10,17,06,41,0.10
2010,10,17,06,42,0.10
2010,10,17,06,43,0.10
2010,10,17,06,44,0.10
2010,10,17,06,45,0.10
2010,10,17,06,46,0.00
2010,10,17,06,47,0.00
2010,10,17,06,48,0.00
2010,10,17,06,49,0.00
2010,10,17,06,50,-0.10
2010,10,17,06,51,-0.10
2010,10,17,06,52,-0.10
2010,10,17,06,53,-0.10
2010,10,17,06,54,-0.10
2010,10,17,06,55,-0.10
2010,10,17,06,56,-0.10
2010,10,17,06,57,-0.10
2010,10,17,06,58,0.00
2010,10,17,06,59,0.00
2010,10,17,07,00,0.00
2010,10,17,07,01,0.00
2010,10,17,07,02,0.00
2010,10,17,07,03,0.00
2010,10,17,07,04,0.00
2010,10,17,07,05,0.00
2010,10,17,07,06,0.00
2010,10,17,07,07,0.00
2010,10,17,07,08,-0.10
2010,10,17,07,09,-0.10
2010,10,17,07,10,-0.10
2010,10,17,07,11,-0.10
2010,10,17,07,12,-0.10
2010,10,17,07,13,-0.10
2010,10,17,07,14,-0.10
2010,10,17,07,15,-0.10
2010,10,17,07,16,-0.10
2010,10,17,07,17,-0.10
2010,10,17,07,18,-0.10
2010,10,17,07,19,-0.10
2010,10,17,07,20,-0.10
2010,10,17,07,21,-0.10
2010,10,17,07,22,-0.10
2010,10,17,07,23,-0.10
2010,10,17,07,24,-0.10
2010,10,17,07,25,0.00
2010,10,17,07,26,0.00
2010,10,17,07,27,0.00
2010,10,17,07,28,0.00
2010,10,17,07,29,0.00
2010,10,17,07,30,0.00
2010,10,17,07,31,0.00
2010,10,17,07,32,0.00
2010,10,17,07,33,0.00
2010,10,17,07,34,0.10
2010,10,17,07,35,0.10
2010,10,17,07,36,0.10
2010,10,17,07,37,0.10
2010,10,17,07,38,0.10
2010,10,17,07,39,0.10
2010,10,17,07,40,0.10
2010,10,17,07,41,0.10
2010,10,17,07,42,0.10
2010,10,17,07,43,0.10
2010,10,17,07,44,0.10
2010,10,17,07,45,0.10
2010,10,17,07,46,0.10
2010,10,17,07,47,0.10
2010,10,17,07,48,0.20
2010,10,17,07,49,0.20
2010,10,17,07,50,0.20
2010,10,17,07,51,0.20
2010,10,17,07,52,0.20
2010,10,17,07,53,0.30
2010,10,17,07,54,0.30
2010,10,17,07,55,0.30
2010,10,17,07,56,0.30
2010,10,17,07,57,0.30
2010,10,17,07,58,0.30
2010,10,17,07,59,0.30
2010,10,17,08,00,0.30
2010,10,17,08,01,0.40
2010,10,17,08,02,0.40
2010,10,17,08,03,0.40
2010,10,17,08,04,0.40
2010,10,17,08,05,0.40
2010,10,17,08,06,0.40
2010,10,17,08,07,0.40
2010,10,17,08,08,0.40
2010,10,17,08,09,0.40
2010,10,17,08,10,0.40
2010,10,17,08,11,0.40
2010,10,17,08,12,0.40
2010,10,17,08,13,0.40
2010,10,17,08,14,0.40
2010,10,17,08,15,0.40
2010,10,17,08,16,0.40
2010,10,17,08,17,0.40
2010,10,17,08,18,0.40
2010,10,17,08,19,0.40
2010,10,17,08,20,0.40
2010,10,17,08,21,0.40
2010,10,17,08,22,0.40
2010,10,17,08,23,0.40
2010,10,17,08,24,0.40
2010,10,17,08,25,0.50
2010,10,17,08,26,0.50
2010,10,17,08,27,0.50
2010,10,17,08,28,0.60
2010,10,17,08,29,0.60
2010,10,17,08,30,0.60
2010,10,17,08,31,0.60
2010,10,17,08,32,0.60
2010,10,17,08,33,0.60
2010,10,17,08,34,0.60
2010,10,17,08,35,0.60
2010,10,17,08,36,0.60
2010,10,17,08,37,0.60
2010,10,17,08,38,0.70
2010,10,17,08,39,0.70
2010,10,17,08,40,0.70
2010,10,17,08,41,0.70
2010,10,17,08,42,0.70
2010,10,17,08,43,0.80
2010,10,17,08,44,0.80
2010,10,17,08,45,0.80
2010,10,17,08,46,0.90
2010,10,17,08,47,0.90
2010,10,17,08,48,1.00
2010,10,17,08,49,1.00
2010,10,17,08,50,1.10
2010,10,17,08,51,1.10
2010,10,17,08,52,1.20
2010,10,17,08,53,1.30
2010,10,17,08,54,1.30
2010,10,17,08,55,1.30
2010,10,17,08,56,1.30
2010,10,17,08,57,1.30
2010,10,17,08,58,1.30
2010,10,17,08,59,1.30
2010,10,17,09,00,1.30
2010,10,17,09,01,1.40
2010,10,17,09,02,1.40
2010,10,17,09,03,1.50
2010,10,17,09,04,1.50
2010,10,17,09,05,1.60
2010,10,17,09,06,1.60
2010,10,17,09,07,1.70
2010,10,17,09,08,1.70
2010,10,17,09,09,1.80
2010,10,17,09,10,1.80
2010,10,17,09,11,1.80
2010,10,17,09,12,1.80
2010,10,17,09,13,1.80
2010,10,17,09,14,1.90
2010,10,17,09,15,1.90
2010,10,17,09,16,1.90
2010,10,17,09,17,1.90
2010,10,17,09,18,2.00
2010,10,17,09,19,2.00
2010,10,17,09,20,2.00
2010,10,17,09,21,2.10
2010,10,17,09,22,2.10
2010,10,17,09,23,2.10
2010,10,17,09,24,2.20
2010,10,17,09,25,2.20
2010,10,17,09,26,2.20
2010,10,17,09,27,2.20
2010,10,17,09,28,2.30
2010,10,17,09,29,2.30
2010,10,17,09,30,2.30
2010,10,17,09,31,2.30
2010,10,17,09,32,2.40
2010,10,17,09,33,2.40
2010,10,17,09,34,2.40
2010,10,17,09,35,2.50
2010,10,17,09,36,2.50
2010,10,17,09,37,2.50
2010,10,17,09,38,2.60
2010,10,17,09,39,2.60
2010,10,17,09,40,2.60
2010,10,17,09,41,2.60
2010,10,17,09,42,2.60
2010,10,17,09,43,2.70
2010,10,17,09,44,2.70
2010,10,17,09,45,2.70
2010,10,17,09,46,2.70
2010,10,17,09,47,2.70
2010,10,17,09,48,2.80
2010,10,17,09,49,2.80
2010,10,17,09,50,2.80
2010,10,17,09,51,2.80
2010,10,17,09,52,2.90
2010,10,17,09,53,2.90
2010,10,17,09,54,2.90
2010,10,17,09,55,3.00
2010,10,17,09,56,3.00
2010,10,17,09,57,3.00
2010,10,17,09,58,3.10
2010,10,17,09,59,3.10
2010,10,17,10,00,3.10
2010,10,17,10,01,3.10
2010,10,17,10,02,3.20
2010,10,17,10,03,3.20
2010,10,17,10,04,3.20
2010,10,17,10,05,3.30
2010,10,17,10,06,3.30
2010,10,17,10,07,3.30
2010,10,17,10,08,3.40
2010,10,17,10,09,3.40
2010,10,17,10,10,3.40
2010,10,17,10,11,3.40
2010,10,17,10,12,3.50
2010,10,17,10,13,3.50
2010,10,17,10,14,3.60
2010,10,17,10,15,3.60
2010,10,17,10,16,3.70
2010,10,17,10,17,3.70
2010,10,17,10,18,3.80
2010,10,17,10,19,3.80
2010,10,17,10,20,3.80
2010,10,17,10,21,3.90
2010,10,17,10,22,3.90
2010,10,17,10,23,4.00
2010,10,17,10,24,4.10
2010,10,17,10,25,4.20
2010,10,17,10,26,4.30
2010,10,17,10,27,4.30
2010,10,17,10,28,4.40
2010,10,17,10,29,4.50
2010,10,17,10,30,4.60
2010,10,17,10,31,4.60
2010,10,17,10,32,4.70
2010,10,17,10,33,4.80
2010,10,17,10,34,4.90
2010,10,17,10,35,4.90
2010,10,17,10,36,5.00
2010,10,17,10,37,5.10
2010,10,17,10,38,5.20
2010,10,17,10,39,5.30
2010,10,17,10,40,5.30
2010,10,17,10,41,5.40
2010,10,17,10,42,5.50
2010,10,17,10,43,5.60
2010,10,17,10,44,5.70
2010,10,17,10,45,5.90
2010,10,17,10,46,5.90
2010,10,17,10,47,6.00
2010,10,17,10,48,6.10
2010,10,17,10,49,6.10
2010,10,17,10,50,6.20
2010,10,17,10,51,6.20
2010,10,17,10,52,6.30
2010,10,17,10,53,6.30
2010,10,17,10,54,6.30
2010,10,17,10,55,6.30
2010,10,17,10,56,6.30
2010,10,17,10,57,6.30
2010,10,17,10,58,6.30
2010,10,17,10,59,6.30
2010,10,17,11,00,6.30
2010,10,17,11,01,6.30
2010,10,17,11,02,6.40
2010,10,17,11,03,6.50
2010,10,17,11,04,6.60
2010,10,17,11,05,6.70
2010,10,17,11,06,6.80
2010,10,17,11,07,6.90
2010,10,17,11,08,7.00
2010,10,17,11,09,7.20
2010,10,17,11,10,7.20
2010,10,17,11,11,7.20
2010,10,17,11,12,7.30
2010,10,17,11,13,7.30
2010,10,17,11,14,7.40
2010,10,17,11,15,7.40
2010,10,17,11,16,7.50
2010,10,17,11,17,7.60
2010,10,17,11,18,7.60
2010,10,17,11,19,7.70
2010,10,17,11,20,7.70
2010,10,17,11,21,7.70
2010,10,17,11,22,7.70
2010,10,17,11,23,7.80
2010,10,17,11,24,7.80
2010,10,17,11,25,7.90
2010,10,17,11,26,8.00
2010,10,17,11,27,8.10
2010,10,17,11,28,8.20
2010,10,17,11,29,8.30
2010,10,17,11,30,8.30
2010,10,17,11,31,8.40
2010,10,17,11,32,8.40
2010,10,17,11,33,8.50
2010,10,17,11,34,8.50
2010,10,17,11,35,8.60
2010,10,17,11,36,8.60
2010,10,17,11,37,8.70
2010,10,17,11,38,8.70
2010,10,17,11,39,8.80
2010,10,17,11,40,8.70
2010,10,17,11,41,8.70
2010,10,17,11,42,8.80
2010,10,17,11,43,8.90
2010,10,17,11,44,8.90
2010,10,17,11,45,9.00
2010,10,17,11,46,9.10
2010,10,17,11,47,9.20
2010,10,17,11,48,9.30
2010,10,17,11,49,9.40
2010,10,17,11,50,9.50
2010,10,17,11,51,9.60
2010,10,17,11,52,9.70
2010,10,17,11,53,9.70
2010,10,17,11,54,9.70
2010,10,17,11,55,9.80
2010,10,17,11,56,9.80
2010,10,17,11,57,9.90
2010,10,17,11,58,9.90
2010,10,17,11,59,10.00
2010,10,17,12,00,10.10
2010,10,17,12,01,10.10
2010,10,17,12,02,10.20
2010,10,17,12,03,10.20
2010,10,17,12,04,10.20
2010,10,17,12,05,10.20
2010,10,17,12,06,10.20
2010,10,17,12,07,10.20
2010,10,17,12,08,10.20
2010,10,17,12,09,10.20
2010,10,17,12,10,10.30
2010,10,17,12,11,10.40
2010,10,17,12,12,10.50
2010,10,17,12,13,10.60
2010,10,17,12,14,10.70
2010,10,17,12,15,10.80
2010,10,17,12,16,10.90
2010,10,17,12,17,11.00
2010,10,17,12,18,11.10
2010,10,17,12,19,11.20
2010,10,17,12,20,11.30
2010,10,17,12,21,11.40
2010,10,17,12,22,11.40
2010,10,17,12,23,11.40
2010,10,17,12,24,11.40
2010,10,17,12,25,11.40
2010,10,17,12,26,11.30
2010,10,17,12,27,11.30
2010,10,17,12,28,11.30
2010,10,17,12,29,11.30
2010,10,17,12,30,11.40
2010,10,17,12,31,11.50
2010,10,17,12,32,11.50
2010,10,17,12,33,11.50
2010,10,17,12,34,11.60
2010,10,17,12,35,11.60
2010,10,17,12,36,11.60
2010,10,17,12,37,11.60
2010,10,17,12,38,11.60
2010,10,17,12,39,11.60
2010,10,17,12,40,11.60
2010,10,17,12,41,11.60
2010,10,17,12,42,11.60
2010,10,17,12,43,11.60
2010,10,17,12,44,11.60
2010,10,17,12,45,11.60
2010,10,17,12,46,11.60
2010,10,17,12,47,11.60
2010,10,17,12,48,11.70
2010,10,17,12,49,11.70
2010,10,17,12,50,11.70
2010,10,17,12,51,11.80
2010,10,17,12,52,11.80
2010,10,17,12,53,11.90
2010,10,17,12,54,11.90
2010,10,17,12,55,12.00
2010,10,17,12,56,12.10
2010,10,17,12,57,12.20
2010,10,17,12,58,12.30
2010,10,17,12,59,12.40
2010,10,17,13,00,12.50
2010,10,17,13,01,12.50
2010,10,17,13,02,12.60
2010,10,17,13,03,12.70
2010,10,17,13,04,12.70
2010,10,17,13,05,12.80
2010,10,17,13,06,12.90
2010,10,17,13,07,12.90
2010,10,17,13,08,13.00
2010,10,17,13,09,13.20
2010,10,17,13,10,13.20
2010,10,17,13,11,13.30
2010,10,17,13,12,13.30
2010,10,17,13,13,13.30
2010,10,17,13,14,13.20
2010,10,17,13,15,13.20
2010,10,17,13,16,13.20
2010,10,17,13,17,13.20
2010,10,17,13,18,13.10
2010,10,17,13,19,13.00
2010,10,17,13,20,12.80
2010,10,17,13,21,12.80
2010,10,17,13,22,12.70
2010,10,17,13,23,12.60
2010,10,17,13,24,12.60
2010,10,17,13,25,12.70
2010,10,17,13,26,12.70
2010,10,17,13,27,12.80
2010,10,17,13,28,12.90
2010,10,17,13,29,13.00
2010,10,17,13,30,13.10
2010,10,17,13,31,13.10
2010,10,17,13,32,13.20
2010,10,17,13,33,13.20
2010,10,17,13,34,13.20
2010,10,17,13,35,13.20
2010,10,17,13,36,13.20
2010,10,17,13,37,13.20
2010,10,17,13,38,13.20
2010,10,17,13,39,13.10
2010,10,17,13,40,13.10
2010,10,17,13,41,13.10
2010,10,17,13,42,13.20
2010,10,17,13,43,13.30
2010,10,17,13,44,13.30
2010,10,17,13,45,13.30
2010,10,17,13,46,13.30
2010,10,17,13,47,13.40
2010,10,17,13,48,13.40
2010,10,17,13,49,13.40
2010,10,17,13,50,13.30
2010,10,17,13,51,13.30
2010,10,17,13,52,13.30
2010,10,17,13,53,13.30
2010,10,17,13,54,13.30
2010,10,17,13,55,13.30
2010,10,17,13,56,13.40
2010,10,17,13,57,13.40
2010,10,17,13,58,13.40
2010,10,17,13,59,13.40
2010,10,17,14,00,13.40
2010,10,17,14,01,13.40
2010,10,17,14,02,13.30
2010,10,17,14,03,13.20
2010,10,17,14,04,13.20
2010,10,17,14,05,13.20
2010,10,17,14,06,13.20
2010,10,17,14,07,13.10
2010,10,17,14,08,13.10
2010,10,17,14,09,13.10
2010,10,17,14,10,13.10
2010,10,17,14,11,13.10
2010,10,17,14,12,13.10
2010,10,17,14,13,13.20
2010,10,17,14,14,13.30
2010,10,17,14,15,13.30
2010,10,17,14,16,13.40
2010,10,17,14,17,13.50
2010,10,17,14,18,13.60
2010,10,17,14,19,13.60
2010,10,17,14,20,13.60
2010,10,17,14,21,13.70
2010,10,17,14,22,13.70
2010,10,17,14,23,13.80
2010,10,17,14,24,13.80
2010,10,17,14,25,13.90
2010,10,17,14,26,14.00
2010,10,17,14,27,14.00
2010,10,17,14,28,14.00
2010,10,17,14,29,13.90
2010,10,17,14,30,13.90
2010,10,17,14,31,13.90
2010,10,17,14,32,13.90
2010,10,17,14,33,13.90
2010,10,17,14,34,13.90
2010,10,17,14,35,13.90
2010,10,17,14,36,13.90
2010,10,17,14,37,14.00
2010,10,17,14,38,13.90
2010,10,17,14,39,14.00
2010,10,17,14,40,14.00
2010,10,17,14,41,14.00
2010,10,17,14,42,14.00
2010,10,17,14,43,14.00
2010,10,17,14,44,14.10
2010,10,17,14,45,14.10
2010,10,17,14,46,14.00
2010,10,17,14,47,14.00
2010,10,17,14,48,14.00
2010,10,17,14,49,14.00
2010,10,17,14,50,14.00
2010,10,17,14,51,13.90
2010,10,17,14,52,13.90
2010,10,17,14,53,13.90
2010,10,17,14,54,13.80
2010,10,17,14,55,13.90
2010,10,17,14,56,13.80
2010,10,17,14,57,13.80
2010,10,17,14,58,13.70
2010,10,17,14,59,13.70
2010,10,17,15,00,13.80
2010,10,17,15,01,13.80
2010,10,17,15,02,13.80
2010,10,17,15,03,13.80
2010,10,17,15,04,13.90
2010,10,17,15,05,13.90
2010,10,17,15,06,13.90
2010,10,17,15,07,13.90
2010,10,17,15,08,13.90
2010,10,17,15,09,13.90
2010,10,17,15,10,13.90
2010,10,17,15,11,13.90
2010,10,17,15,12,13.90
2010,10,17,15,13,13.90
2010,10,17,15,14,13.90
2010,10,17,15,15,13.90
2010,10,17,15,16,13.90
2010,10,17,15,17,13.80
2010,10,17,15,18,13.80
2010,10,17,15,19,13.70
2010,10,17,15,20,13.80
2010,10,17,15,21,13.80
2010,10,17,15,22,13.80
2010,10,17,15,23,13.90
2010,10,17,15,24,13.90
2010,10,17,15,25,14.00
2010,10,17,15,26,14.00
2010,10,17,15,27,13.90
2010,10,17,15,28,13.90
2010,10,17,15,29,13.90
2010,10,17,15,30,13.90
2010,10,17,15,31,13.90
2010,10,17,15,32,13.90
2010,10,17,15,33,13.90
2010,10,17,15,34,13.90
2010,10,17,15,35,13.90
2010,10,17,15,36,13.90
2010,10,17,15,37,13.90
2010,10,17,15,38,13.80
2010,10,17,15,39,13.80
2010,10,17,15,40,13.80
2010,10,17,15,41,13.80
2010,10,17,15,42,13.80
2010,10,17,15,43,13.80
2010,10,17,15,44,13.80
2010,10,17,15,45,13.80
2010,10,17,15,46,13.80
2010,10,17,15,47,13.90
2010,10,17,15,48,13.90
2010,10,17,15,49,13.90
2010,10,17,15,50,14.00
2010,10,17,15,51,13.90
2010,10,17,15,52,13.90
2010,10,17,15,53,13.80
2010,10,17,15,54,13.80
2010,10,17,15,55,13.80
2010,10,17,15,56,13.80
2010,10,17,15,57,13.80
2010,10,17,15,58,13.80
2010,10,17,15,59,13.80
2010,10,17,16,00,13.80
2010,10,17,16,01,13.80
2010,10,17,16,02,13.80
2010,10,17,16,03,13.80
2010,10,17,16,04,13.80
2010,10,17,16,05,13.70
2010,10,17,16,06,13.80
2010,10,17,16,07,13.80
2010,10,17,16,08,13.80
2010,10,17,16,09,13.80
2010,10,17,16,10,13.90
2010,10,17,16,11,13.90
2010,10,17,16,12,13.90
2010,10,17,16,13,13.90
2010,10,17,16,14,13.90
2010,10,17,16,15,14.00
2010,10,17,16,16,14.00
2010,10,17,16,17,14.00
2010,10,17,16,18,14.00
2010,10,17,16,19,13.90
2010,10,17,16,20,13.90
2010,10,17,16,21,13.90
2010,10,17,16,22,13.90
2010,10,17,16,23,13.90
2010,10,17,16,24,13.90
2010,10,17,16,25,13.80
2010,10,17,16,26,13.80
2010,10,17,16,27,13.70
2010,10,17,16,28,13.60
2010,10,17,16,29,13.50
2010,10,17,16,30,13.50
2010,10,17,16,31,13.40
2010,10,17,16,32,13.30
2010,10,17,16,33,13.30
2010,10,17,16,34,13.20
2010,10,17,16,35,13.10
2010,10,17,16,36,13.10
2010,10,17,16,37,13.10
2010,10,17,16,38,13.10
2010,10,17,16,39,13.10
2010,10,17,16,40,13.10
2010,10,17,16,41,13.10
2010,10,17,16,42,13.10
2010,10,17,16,43,13.10
2010,10,17,16,44,13.10
2010,10,17,16,45,13.10
2010,10,17,16,46,13.00
2010,10,17,16,47,13.00
2010,10,17,16,48,13.00
2010,10,17,16,49,13.00
2010,10,17,16,50,13.00
2010,10,17,16,51,13.00
2010,10,17,16,52,13.00
2010,10,17,16,53,13.00
2010,10,17,16,54,13.00
2010,10,17,16,55,13.00
2010,10,17,16,56,13.00
2010,10,17,16,57,13.00
2010,10,17,16,58,12.90
2010,10,17,16,59,12.90
2010,10,17,17,00,12.90
2010,10,17,17,01,12.90
2010,10,17,17,02,12.90
2010,10,17,17,03,12.90
2010,10,17,17,04,12.90
2010,10,17,17,05,12.80
2010,10,17,17,06,12.80
2010,10,17,17,07,12.80
2010,10,17,17,08,12.80
2010,10,17,17,09,12.80
2010,10,17,17,10,12.80
2010,10,17,17,11,12.70
2010,10,17,17,12,12.70
2010,10,17,17,13,12.60
2010,10,17,17,14,12.60
2010,10,17,17,15,12.60
2010,10,17,17,16,12.60
2010,10,17,17,17,12.50
2010,10,17,17,18,12.50
2010,10,17,17,19,12.40
2010,10,17,17,20,12.40
2010,10,17,17,21,12.40
2010,10,17,17,22,12.40
2010,10,17,17,23,12.30
2010,10,17,17,24,12.30
2010,10,17,17,25,12.30
2010,10,17,17,26,12.30
2010,10,17,17,27,12.30
2010,10,17,17,28,12.30
2010,10,17,17,29,12.30
2010,10,17,17,30,12.30
2010,10,17,17,31,12.30
2010,10,17,17,32,12.20
2010,10,17,17,33,12.20
2010,10,17,17,34,12.20
2010,10,17,17,35,12.20
2010,10,17,17,36,12.20
2010,10,17,17,37,12.20
2010,10,17,17,38,12.10
2010,10,17,17,39,12.10
2010,10,17,17,40,12.10
2010,10,17,17,41,12.10
2010,10,17,17,42,12.00
2010,10,17,17,43,12.00
2010,10,17,17,44,12.00
2010,10,17,17,45,12.00
2010,10,17,17,46,11.90
2010,10,17,17,47,11.90
2010,10,17,17,48,11.90
2010,10,17,17,49,11.80